Погода в Заозёрске

Россия / Мурманская область     69°24′01″N   32°27′00″E
темп.,
°C
ветер,
м/с
пор.,
м/с
влажн.,
%
обл.,
%
осадки,
мм/ч
давл.,
гПа
погр.,
м
11 мая, вт
вт1100:00+3з227454 0.0 101211
03:00+3з237287 0.0 101385
06:00+3зюз248397 0.0 1015169
09:00+4юз2381100 0.0 1015254
12:00+6ююз4569100 0.0 1015560
15:00+6ююв5680100 0.1 1013630
18:00+5вюв4594100 2.7 1012541
21:00+4в1195100 3.9 101263
12 мая, ср
ср1200:00+4сз2595100 0.4 1014464
03:00+4сз3594100 0.5 1017205
06:00+4ссз2388100 0.1 1020221
09:00+4зсз2284100 0.1 1022288
12:00+5всв0180100 0.1 1024392
15:00+5вюв4479100 0.1 1024610
18:00+5в5679100 0.0 1023390
21:00+4в4687100 0.1 1022182
13 мая, чт
чт1300:00+4вюв3598100 2.7 1019158
03:00+4в2498100 5.1 1017160
06:00+5ю2297100 0.1 101469
09:00+7юз4993100 0.1 1013355
12:00+8з5992100 0.0 1014490
15:00+6сз2491100 0.3 1015217
18:00+5ссв4495100 2.9 1016212
21:00+3ссв3494100 5.1 1018322
14 мая, пт
пт1400:00+3св4696100 0.5 1019426
03:00+2св5793100 0.6 1019474
06:00+2всв6896100 0.3 1019553
09:00+2в7998100 0.7 1019530
12:00+2в71099100 1.3 1019393
15:00+1всв71099100 2.9 1020397
18:00+1всв71099100 0.9 1019493
21:00+1всв71098100 1.3 1020498
15 мая, сб
сб1500:00+1всв71098100 0.6 1020456
03:000всв7996100 1.1 1021617
06:00+1всв7986100 0.2 1021860
09:00+1всв8975100 0.2 1022965
12:00+2в91072100 0.0 1023995
15:00+2в91070100 0.0 1023946
18:00+2в101172100 0.0 1023963
21:00+1в101174100 0.0 1023908